EHI
12 14 16 15 9 5 4 3 2 1 1 1 0 0 0 0 0 0 2 7 11 12 9 7 7 6 6 6 6 5 3 2 1 0 0 0 0 0 0 0 0 0 0
16 15 17 17 12 9 8 6 3 2 2 1 0 0 0 0 0 0 1 4 8 10 10 10 9 9 9 8 7 5 3 1 0 0 0 0 0 0 0 0 0 0 0
19 20 19 17 15 14 14 10 5 3 2 1 1 0 0 0 1 2 1 3 4 6 10 11 11 12 12 10 9 6 3 1 0 0 0 0 0 0 0 0 0 0 0
22 23 23 20 18 19 17 12 8 5 2 2 2 1 0 0 2 3 2 2 3 4 7 9 10 11 11 10 9 6 3 1 0 0 0 0 0 0 0 0 0 0 0
26 26 26 22 20 22 20 14 13 10 6 4 3 1 0 1 2 2 2 2 2 4 5 7 9 9 8 8 7 5 3 2 1 0 0 0 0 0 0 0 0 0 0
30 30 28 24 23 26 24 18 15 14 9 6 4 1 0 2 3 3 1 2 3 3 3 5 8 8 7 5 5 4 3 2 1 0 0 0 0 0 0 0 0 0 0
33 34 34 30 30 31 27 20 17 16 11 9 7 3 1 2 4 4 2 2 2 1 1 2 5 7 6 5 4 3 1 1 1 0 0 0 0 0 0 0 0 0 0
35 36 37 36 35 35 29 22 20 18 13 10 9 7 4 3 3 3 2 1 1 1 0 1 3 6 6 6 4 2 0 0 0 0 0 0 0 0 0 0 1 0 0
27 28 30 33 36 35 29 23 20 18 14 10 10 10 8 5 3 2 1 1 1 1 1 2 4 5 5 5 4 1 0 0 0 0 0 0 0 0 0 0 0 0 0
14 14 16 21 26 26 21 16 15 14 12 10 9 9 9 7 5 2 0 0 1 1 1 2 3 3 2 2 1 0 0 0 0 0 0 0 0 0 0 0 0 0 0
4 4 6 8 11 11 9 8 9 9 8 7 7 6 6 5 4 2 1 1 0 0 1 1 1 1 0 0 0 0 0 0 0 0 0 0 0 0 0 0 0 0 0
2 2 2 3 4 3 3 3 4 4 3 3 2 2 2 1 1 2 2 1 1 1 1 0 0 0 0 0 0 0 0 0 0 0 0 0 0 0 0 0 0 0 0
2 1 1 2 2 1 1 1 1 1 0 0 0 0 0 0 0 1 1 1 0 0 0 0 0 0 0 0 0 0 0 0 0 0 0 0 0 0 0 0 0 0 0
1 1 0 1 1 0 0 0 0 0 0 0 0 0 0 0 0 0 0 0 0 0 0 0 0 0 0 0 0 0 0 0 0 0 0 0 0 0 0 0 0 0 0
0 0 0 0 0 0 0 0 0 0 0 0 0 0 0 0 0 0 0 0 0 0 0 0 0 0 0 0 0 0 0 0 0 0 0 0 0 0 0 0 0 0 0
0 0 0 0 0 0 0 0 0 0 0 0 0 0 0 0 0 0 0 0 0 0 0 0 0 0 0 0 0 0 0 0 0 0 0 0 0 0 0 0 0 0 0
0 0 0 0 0 0 0 0 0 0 0 0 0 0 0 0 0 0 0 0 0 0 0 0 0 0 0 0 0 0 0 0 0 0 0 0 0 0 0 0 0 0 0
0 0 0 0 0 0 0 0 0 0 0 0 0 0 0 0 0 0 0 0 0 0 0 0 0 0 0 0 0 0 0 0 0 0 0 0 0 0 0 0 0 0 0
0 0 0 0 0 0 0 0 0 0 0 0 0 0 0 0 0 0 0 0 0 0 0 0 0 0 0 0 0 0 0 0 0 0 0 0 0 0 0 0 0 0 0
0 0 0 0 0 0 0 0 0 0 0 0 0 0 0 0 0 0 0 0 0 0 0 0 0 0 0 0 0 0 0 0 0 0 0 0 0 0 0 0 0 0 0
0 0 0 0 0 0 0 0 0 0 0 0 0 0 0 0 0 0 0 0 0 0 0 0 0 0 0 0 0 0 0 0 0 0 0 0 0 0 0 0 0 0 0
0 0 0 0 0 0 0 0 0 0 0 0 0 0 0 0 0 0 0 0 0 0 0 0 0 0 0 0 0 0 0 0 0 0 0 0 0 0 0 0 0 0 0
0 0 0 0 0 0 0 0 0 0 0 0 0 0 0 0 0 0 0 0 0 0 0 0 0 0 0 0 0 0 0 0 0 0 0 0 0 0 0 0 0 0 0
0 0 0 0 0 0 0 0 0 0 0 0 0 0 0 0 0 0 0 0 0 0 0 0 0 0 0 0 0 0 0 0 0 0 0 0 0 0 0 0 0 0 0
0 0 0 0 0 0 0 0 0 0 0 0 0 0 0 0 0 0 0 0 0 0 0 0 0 0 0 0 0 0 0 0 0 0 0 0 0 0 0 0 0 0 0
0 0 0 0 0 0 0 0 0 0 0 0 0 0 0 0 0 0 0 0 0 0 0 0 0 0 0 0 0 0 0 0 0 0 0 0 0 0 0 0 0 0 0
Wind_Speed
7 7 5 5 6 5 6 6 6 5 6 7 7 7 7 7 7 6 3 9 10 11 13 14 15 16 16 16 16 15 15 15 15 14 14 14 13 13 13 13 12 12 11
7 7 6 6 6 5 5 5 5 5 5 5 6 6 7 7 6 6 6 5 10 11 12 13 14 15 16 16 16 16 15 15 15 15 14 14 13 13 13 13 13 13 12
8 7 6 5 5 5 5 5 5 4 5 5 6 6 6 6 5 5 6 5 5 9 11 10 12 13 14 16 16 17 17 17 16 15 15 15 14 14 14 13 13 13 12
9 7 6 6 5 4 4 4 4 4 4 4 4 4 4 3 5 5 5 5 5 5 6 8 8 10 12 14 15 17 17 17 16 16 16 17 16 14 14 14 13 13 12
9 8 6 5 5 4 4 5 4 4 4 4 4 4 4 4 4 4 4 5 4 4 4 2 5 6 8 10 11 13 15 16 15 15 15 15 14 13 13 13 12 12 12
9 8 6 6 5 4 4 4 4 3 3 3 4 3 3 3 2 3 3 3 3 4 4 5 3 2 3 5 6 8 10 12 12 13 14 13 12 11 11 11 11 11 11
7 7 5 5 5 4 4 4 4 4 3 2 3 3 3 2 1 2 2 3 3 4 4 5 4 4 2 1 2 3 5 7 8 9 10 11 12 12 12 12 12 11 11
5 5 6 5 4 4 3 3 3 3 2 2 3 3 3 2 1 2 2 3 4 4 5 6 6 5 4 3 5 5 4 3 2 2 2 3 4 7 10 11 12 11 10
3 3 3 3 3 3 3 2 3 4 3 2 2 2 3 2 0 2 4 4 4 4 5 5 6 6 6 5 4 7 7 6 4 3 3 2 1 3 6 8 10 10 10
5 5 5 4 3 3 3 2 1 1 2 2 1 1 2 2 2 1 2 3 5 6 6 5 6 7 7 5 7 9 10 10 9 8 8 7 6 5 4 3 3 3 4
8 8 7 6 7 6 6 6 5 3 2 1 0 0 1 0 1 2 1 2 3 5 5 6 5 6 7 6 6 10 13 12 11 10 9 8 8 7 6 5 3 1 1
7 9 9 8 8 7 8 7 7 8 7 6 5 4 3 2 2 1 1 1 2 3 5 5 5 5 5 5 8 11 11 10 10 9 8 8 7 7 6 6 4 3 2
7 8 8 9 8 9 9 8 9 9 9 9 7 6 5 5 3 2 1 1 1 2 3 4 5 5 5 4 5 7 8 8 8 7 8 7 7 6 5 4 4 4 4
8 9 10 10 10 10 10 9 9 9 9 9 9 7 5 6 5 4 3 2 0 2 3 4 3 5 4 3 5 3 4 6 5 5 5 5 5 4 4 4 4 4 4
9 11 11 11 10 10 10 10 9 9 8 8 8 8 6 5 5 5 4 4 3 1 2 3 3 4 3 3 3 3 2 4 2 2 2 3 3 3 4 4 4 4 5
10 11 11 11 10 10 10 9 9 9 9 9 8 9 7 6 5 5 5 4 4 3 2 3 3 4 4 3 3 3 3 1 3 1 2 2 3 3 4 4 5 5 6
11 11 11 10 10 10 10 9 10 9 10 9 8 9 9 8 6 6 5 5 5 4 3 3 3 3 3 4 3 4 3 3 1 3 2 3 4 4 5 5 5 6 7
11 11 10 10 11 10 9 9 9 9 9 9 9 9 8 7 7 7 5 6 5 4 3 3 2 2 2 2 3 4 3 3 3 4 4 6 5 5 5 5 5 5 5
11 11 10 10 10 9 9 9 9 9 9 9 8 8 8 8 7 6 6 6 4 4 3 2 2 2 2 3 4 3 3 3 4 2 6 8 6 4 3 3 3 3 3
11 10 10 10 9 9 9 8 8 8 8 8 8 8 8 8 8 6 5 5 5 3 2 2 2 2 2 2 3 4 3 3 3 3 2 3 5 7 5 3 1 1 2
10 10 10 10 9 8 8 7 7 7 7 7 7 7 8 7 7 6 6 6 6 4 3 3 2 2 3 4 4 4 5 4 2 3 4 2 1 2 4 6 3 2 3
9 9 9 9 9 9 9 10 7 6 6 6 6 5 5 5 3 1 1 4 6 6 6 5 4 5 5 5 5 5 5 5 3 2 5 3 2 1 1 4 6 3 3
9 9 8 9 10 10 9 9 9 4 6 5 5 5 5 6 4 5 0 5 4 4 5 6 6 6 6 6 7 7 6 6 6 5 5 3 2 2 2 6 6 2 2
8 7 8 8 9 9 8 7 9 2 5 5 5 5 5 5 7 7 6 4 3 1 2 5 6 7 7 7 7 7 7 7 5 2 4 4 3 3 2 4 8 4 2
7 7 7 8 8 8 8 8 11 2 4 5 5 6 6 6 6 8 6 4 4 3 3 6 7 8 8 8 8 7 6 5 4 2 3 4 4 3 1 2 5 9 6
6 7 7 7 7 7 7 8 12 2 4 4 4 5 7 6 7 8 6 6 6 6 6 3 4 6 6 5 8 6 6 6 5 3 4 4 4 4 3 2 2 1 3
Wind_Direction
195 186 192 195 206 199 191 213 223 214 226 227 238 242 251 255 262 263 231 180 208 227 230 229 227 226 225 225 226 224 223 223 221 220 219 218 216 213 210 207 207 207 208
196 195 194 196 211 211 214 217 222 222 232 241 245 249 257 261 253 261 271 215 204 220 232 236 233 229 228 227 227 225 225 225 225 223 222 222 221 218 215 213 211 210 210
198 203 206 199 210 211 208 220 220 226 232 236 243 253 258 268 277 276 277 278 245 215 220 234 239 233 230 230 230 229 229 227 226 225 224 223 221 219 218 216 214 212 211
202 208 212 209 208 214 216 219 226 229 237 245 250 261 269 272 274 279 274 270 276 275 228 221 237 238 235 236 235 234 233 231 230 228 227 226 223 220 219 218 216 213 210
204 209 216 214 212 217 226 233 220 237 242 250 259 253 260 268 282 284 290 292 296 294 291 239 223 237 240 243 243 242 240 236 235 233 230 227 225 220 216 212 210 208 208
206 209 212 215 219 218 220 226 226 232 247 254 268 276 278 282 293 298 299 307 322 321 322 323 305 279 244 245 251 253 249 243 237 235 233 230 224 219 214 208 208 209 209
206 204 211 205 211 213 220 224 225 226 239 253 258 259 252 244 275 317 329 339 353 3 5 359 352 342 331 305 302 292 279 267 254 246 242 236 229 227 224 218 215 213 210
195 190 193 196 196 193 197 211 213 227 230 234 263 271 259 223 149 41 31 27 17 20 25 23 18 13 4 6 35 33 24 5 340 308 289 265 240 233 228 222 221 217 213
127 139 161 171 165 165 162 179 205 214 215 204 254 271 276 271 136 96 62 49 38 34 32 29 30 27 29 29 28 43 49 50 41 35 26 8 300 255 228 217 218 218 209
80 85 87 93 98 101 109 108 80 223 222 212 180 262 280 311 284 213 110 68 52 41 35 31 33 36 37 39 47 47 49 51 52 53 55 58 58 57 69 123 166 184 203
72 76 80 82 82 79 77 73 70 61 52 40 38 261 227 257 298 273 252 70 64 48 39 37 38 41 42 46 49 57 59 59 60 61 63 62 62 60 58 67 74 89 223
73 72 78 79 78 80 79 76 73 71 66 62 57 45 34 37 32 9 6 36 59 55 49 45 42 44 44 45 56 59 59 58 56 54 53 52 51 51 53 51 44 31 322
77 73 76 78 78 79 81 81 79 73 71 70 66 64 58 51 34 24 40 69 87 93 75 60 44 43 43 41 54 55 67 62 57 55 55 52 47 42 35 25 18 11 358
81 81 80 81 82 84 85 84 82 78 76 75 70 65 64 54 39 31 24 11 106 114 83 54 55 43 35 38 47 3 67 70 56 53 50 44 34 21 13 7 0 349 338
84 82 81 81 80 82 84 84 82 80 78 77 77 72 65 61 47 39 33 15 348 5 69 58 39 39 13 37 27 351 17 69 36 22 16 5 352 342 336 330 319 308 302
87 88 87 85 84 82 84 85 87 83 83 77 71 65 57 58 53 46 37 33 18 4 46 54 45 35 14 359 43 347 359 171 229 255 337 334 317 306 303 302 301 299 291
84 85 86 86 85 83 81 80 82 81 79 77 74 70 63 47 41 39 38 36 33 27 47 61 53 52 14 356 355 334 325 301 161 174 279 291 289 292 295 296 300 297 292
84 85 84 84 83 82 79 80 81 79 78 75 70 66 61 59 50 39 31 38 42 34 34 52 38 43 20 349 337 312 319 323 313 152 229 260 268 277 284 290 294 292 293
85 84 84 83 82 82 81 80 81 80 77 73 67 63 57 50 44 43 32 34 32 38 27 19 38 25 358 4 324 314 324 316 303 167 210 225 232 246 260 274 287 294 300
87 87 84 82 80 78 78 82 83 81 79 74 67 61 52 45 38 30 36 33 23 12 18 357 19 18 3 355 317 332 335 329 320 321 306 257 206 213 214 217 237 323 329
89 87 85 81 77 71 58 61 82 82 78 75 69 62 60 54 38 15 13 12 4 354 356 354 357 3 12 353 351 342 340 325 327 337 320 300 241 231 185 185 152 59 7
85 84 81 79 73 64 37 24 23 77 72 68 63 59 82 77 68 138 18 345 343 344 351 340 356 5 1 355 350 332 338 333 338 3 320 320 341 351 42 81 81 65 18
88 85 83 80 77 63 37 23 3 36 68 59 51 40 41 52 7 17 238 220 223 232 275 316 334 345 344 354 335 332 344 334 334 341 326 327 356 5 59 98 116 95 13
93 89 84 82 82 66 37 17 340 42 70 66 54 42 36 36 29 350 340 359 7 33 278 288 324 322 333 334 321 311 307 300 293 301 327 323 359 7 43 113 148 166 188
98 95 87 83 83 75 38 9 337 78 79 76 64 50 23 34 32 334 325 2 11 24 194 236 271 284 295 289 289 298 313 318 334 32 0 334 349 349 37 91 152 184 194
101 97 89 80 74 69 47 12 340 24 75 84 88 97 73 25 4 339 342 4 9 5 349 331 254 241 247 237 232 270 320 333 344 17 25 344 349 345 8 27 16 105 184